H1 CPF  2  DGF 2024 03 06 10 066 01 etalon1    NONE      
H2  8900103  525    19751 2024 03 06 00 00 00 2024 03 13 00 00 00   120 1 1  0 0 0 1
H5  0.5673
H9
10 0 60379  14400.000000  0     -13077340.387        146500.694     -21880538.795
10 0 60379  14520.000000  0     -13303204.573       -132938.447     -21745282.267
10 0 60379  14640.000000  0     -13530334.925       -408377.626     -21602492.052
10 0 60379  14760.000000  0     -13758599.883       -679721.534     -21452218.521
10 0 60379  14880.000000  0     -13987865.960       -946878.310     -21294514.622
10 0 60379  15000.000000  0     -14217997.844      -1209759.594     -21129435.869
10 0 60379  15120.000000  0     -14448858.491      -1468280.587     -20957040.317
10 0 60379  15240.000000  0     -14680309.231      -1722360.100     -20777388.540
10 0 60379  15360.000000  0     -14912209.864      -1971920.602     -20590543.610
10 0 60379  15480.000000  0     -15144418.764      -2216888.270     -20396571.077
10 0 60379  15600.000000  0     -15376792.983      -2457193.028     -20195538.939
10 0 60379  15720.000000  0     -15609188.354      -2692768.588     -19987517.622
10 0 60379  15840.000000  0     -15841459.595      -2923552.493     -19772579.953
10 0 60379  15960.000000  0     -16073460.420      -3149486.145     -19550801.135
10 0 60379  16080.000000  0     -16305043.641      -3370514.839     -19322258.717
10 0 60379  16200.000000  0     -16536061.277      -3586587.794     -19087032.569
10 0 60379  16320.000000  0     -16766364.665      -3797658.176     -18845204.850
10 0 60379  16440.000000  0     -16995804.567      -4003683.125     -18596859.983
10 0 60379  16560.000000  0     -17224231.278      -4204623.768     -18342084.623
10 0 60379  16680.000000  0     -17451494.739      -4400445.242     -18080967.623
10 0 60379  16800.000000  0     -17677444.644      -4591116.707     -17813600.007
10 0 60379  16920.000000  0     -17901930.554      -4776611.354     -17540074.935
10 0 60379  17040.000000  0     -18124802.005      -4956906.415     -17260487.671
10 0 60379  17160.000000  0     -18345908.620      -5131983.168     -16974935.548
10 0 60379  17280.000000  0     -18565100.219      -5301826.937     -16683517.935
10 0 60379  17400.000000  0     -18782226.929      -5466427.093     -16386336.201
10 0 60379  17520.000000  0     -18997139.297      -5625777.049     -16083493.680
10 0 60379  17640.000000  0     -19209688.399      -5779874.250     -15775095.633
10 0 60379  17760.000000  0     -19419725.947      -5928720.167     -15461249.213
10 0 60379  17880.000000  0     -19627104.404      -6072320.281     -15142063.426
10 0 60379  18000.000000  0     -19831677.089      -6210684.067     -14817649.094
10 0 60379  18120.000000  0     -20033298.285      -6343824.975     -14488118.815
10 0 60379  18240.000000  0     -20231823.351      -6471760.410     -14153586.922
10 0 60379  18360.000000  0     -20427108.826      -6594511.700     -13814169.449
10 0 60379  18480.000000  0     -20619012.533      -6712104.077     -13469984.082
10 0 60379  18600.000000  0     -20807393.691      -6824566.639     -13121150.127
10 0 60379  18720.000000  0     -20992113.014      -6931932.319     -12767788.460
10 0 60379  18840.000000  0     -21173032.814      -7034237.849     -12410021.492
10 0 60379  18960.000000  0     -21350017.108      -7131523.719     -12047973.121
10 0 60379  19080.000000  0     -21522931.715      -7223834.133     -11681768.694
10 0 60379  19200.000000  0     -21691644.357      -7311216.970     -11311534.957
10 0 60379  19320.000000  0     -21856024.758      -7393723.730     -10937400.020
10 0 60379  19440.000000  0     -22015944.739      -7471409.486     -10559493.303
10 0 60379  19560.000000  0     -22171278.317      -7544332.832     -10177945.499
10 0 60379  19680.000000  0     -22321901.798      -7612555.825      -9792888.525
10 0 60379  19800.000000  0     -22467693.865      -7676143.930      -9404455.477
10 0 60379  19920.000000  0     -22608535.676      -7735165.957      -9012780.584
10 0 60379  20040.000000  0     -22744310.947      -7789693.998      -8617999.165
10 0 60379  20160.000000  0     -22874906.043      -7839803.362      -8220247.577
10 0 60379  20280.000000  0     -23000210.060      -7885572.508      -7819663.170
10 0 60379  20400.000000  0     -23120114.911      -7927082.973      -7416384.245
10 0 60379  20520.000000  0     -23234515.406      -7964419.300      -7010549.997
10 0 60379  20640.000000  0     -23343309.332      -7997668.967      -6602300.476
10 0 60379  20760.000000  0     -23446397.530      -8026922.305      -6191776.535
10 0 60379  20880.000000  0     -23543683.968      -8052272.420      -5779119.782
10 0 60379  21000.000000  0     -23635075.816      -8073815.117      -5364472.531
10 0 60379  21120.000000  0     -23720483.518      -8091648.812      -4947977.755
10 0 60379  21240.000000  0     -23799820.855      -8105874.450      -4529779.036
10 0 60379  21360.000000  0     -23873005.015      -8116595.417      -4110020.519
10 0 60379  21480.000000  0     -23939956.655      -8123917.454      -3688846.856
10 0 60379  21600.000000  0     -24000599.961      -8127948.564      -3266403.164
10 0 60379  21720.000000  0     -24054862.707      -8128798.924      -2842834.973
10 0 60379  21840.000000  0     -24102676.312      -8126580.787      -2418288.172
10 0 60379  21960.000000  0     -24143975.891      -8121408.394      -1992908.969
10 0 60379  22080.000000  0     -24178700.306      -8113397.873      -1566843.832
10 0 60379  22200.000000  0     -24206792.214      -8102667.141      -1140239.443
10 0 60379  22320.000000  0     -24228198.114      -8089335.811       -713242.651
10 0 60379  22440.000000  0     -24242868.386      -8073525.087       -286000.416
10 0 60379  22560.000000  0     -24250757.333      -8055357.664        141340.235
10 0 60379  22680.000000  0     -24251823.216      -8034957.627        568632.262
10 0 60379  22800.000000  0     -24246028.289      -8012450.350        995728.659
10 0 60379  22920.000000  0     -24233338.831      -7987962.386       1422482.504
10 0 60379  23040.000000  0     -24213725.173      -7961621.370       1848747.012
10 0 60379  23160.000000  0     -24187161.723      -7933555.908       2274375.581
10 0 60379  23280.000000  0     -24153626.990      -7903895.473       2699221.842
10 0 60379  23400.000000  0     -24113103.600      -7872770.298       3123139.711
10 0 60379  23520.000000  0     -24065578.317      -7840311.271       3545983.434
10 0 60379  23640.000000  0     -24011042.056      -7806649.822       3967607.643
10 0 60379  23760.000000  0     -23949489.888      -7771917.823       4387867.396
10 0 60379  23880.000000  0     -23880921.055      -7736247.471       4806618.234
10 0 60379  24000.000000  0     -23805338.972      -7699771.188       5223716.226
10 0 60379  24120.000000  0     -23722751.226      -7662621.506       5639018.018
10 0 60379  24240.000000  0     -23633169.578      -7624930.963       6052380.880
10 0 60379  24360.000000  0     -23536609.957      -7586831.991       6463662.757
10 0 60379  24480.000000  0     -23433092.456      -7548456.812       6872722.317
10 0 60379  24600.000000  0     -23322641.316      -7509937.325       7279418.992
10 0 60379  24720.000000  0     -23205284.919      -7471405.003       7683613.035
10 0 60379  24840.000000  0     -23081055.766      -7432990.782       8085165.561
10 0 60379  24960.000000  0     -22949990.464      -7394824.956       8483938.594
10 0 60379  25080.000000  0     -22812129.699      -7357037.070       8879795.116
10 0 60379  25200.000000  0     -22667518.214      -7319755.815       9272599.112
10 0 60379  25320.000000  0     -22516204.781      -7283108.922       9662215.612
10 0 60379  25440.000000  0     -22358242.167      -7247223.058      10048510.745
10 0 60379  25560.000000  0     -22193687.107      -7212223.721      10431351.776
10 0 60379  25680.000000  0     -22022600.260      -7178235.143      10810607.155
10 0 60379  25800.000000  0     -21845046.178      -7145380.180      11186146.557
10 0 60379  25920.000000  0     -21661093.257      -7113780.220      11557840.933
10 0 60379  26040.000000  0     -21470813.696      -7083555.078      11925562.547
10 0 60379  26160.000000  0     -21274283.449      -7054822.900      12289185.020
10 0 60379  26280.000000  0     -21071582.176      -7027700.066      12648583.377
10 0 60379  26400.000000  0     -20862793.187      -7002301.094      13003634.084
10 0 60379  26520.000000  0     -20648003.391      -6978738.548      13354215.091
10 0 60379  26640.000000  0     -20427303.237      -6957122.942      13700205.874
10 0 60379  26760.000000  0     -20200786.651      -6937562.655      14041487.476
10 0 60379  26880.000000  0     -19968550.977      -6920163.834      14377942.547
10 0 60379  27000.000000  0     -19730696.908      -6905030.312      14709455.380
10 0 60379  27120.000000  0     -19487328.423      -6892263.521      15035911.956
10 0 60379  27240.000000  0     -19238552.713      -6881962.407      15357199.977
10 0 60379  27360.000000  0     -18984480.110      -6874223.349      15673208.909
10 0 60379  27480.000000  0     -18725224.014      -6869140.079      15983830.015
10 0 60379  27600.000000  0     -18460900.816      -6866803.603      16288956.394
10 0 60379  27720.000000  0     -18191629.816      -6867302.125      16588483.015
10 0 60379  27840.000000  0     -17917533.146      -6870720.974      16882306.757
10 0 60379  27960.000000  0     -17638735.687      -6877142.533      17170326.439
10 0 60379  28080.000000  0     -17355364.982      -6886646.167      17452442.857
10 0 60379  28200.000000  0     -17067551.152      -6899308.157      17728558.818
10 0 60379  28320.000000  0     -16775426.803      -6915201.637      17998579.171
10 0 60379  28440.000000  0     -16479126.942      -6934396.529      18262410.840
10 0 60379  28560.000000  0     -16178788.882      -6956959.484      18519962.857
10 0 60379  28680.000000  0     -15874552.145      -6982953.826      18771146.392
99